Previsão horária em Ceiba

Hoje, 3 Agosto, Terça-feira

Tempo Temperatura Precipitação Vento Pressão Humidade
00:00 +23°C° 0.1 mm 2 m/s 724 mmHg 90%
01:00 +23°C° 0.1 mm 1 m/s 723 mmHg 91%
02:00 +23°C° 0 mm 1 m/s 723 mmHg 91%
03:00 +23°C° 0 mm 1 m/s 723 mmHg 91%
04:00 +23°C° 0 mm 1 m/s 723 mmHg 91%
05:00 +23°C° 0 mm 1 m/s 723 mmHg 92%
06:00 +24°C° 0 mm 1 m/s 723 mmHg 88%
07:00 +24°C° 0 mm 2 m/s 723 mmHg 85%
08:00 +25°C° 0 mm 2 m/s 724 mmHg 82%
09:00 +27°C° 0.1 mm 3 m/s 724 mmHg 76%
10:00 +28°C° 0.1 mm 3 m/s 724 mmHg 69%
11:00 +29°C° 0.1 mm 4 m/s 724 mmHg 63%
12:00 +29°C° 0.1 mm 4 m/s 724 mmHg 61%
13:00 +30°C° 0.1 mm 4 m/s 723 mmHg 60%
14:00 +30°C° 0.1 mm 5 m/s 723 mmHg 59%
15:00 +29°C° 0.1 mm 4 m/s 723 mmHg 61%
16:00 +29°C° 0.1 mm 4 m/s 723 mmHg 64%
17:00 +28°C° 0.1 mm 4 m/s 722 mmHg 67%
18:00 +27°C° 0 mm 3 m/s 723 mmHg 74%
19:00 +26°C° 0 mm 3 m/s 723 mmHg 80%
20:00 +24°C° 0 mm 2 m/s 723 mmHg 87%
21:00 +24°C° 0 mm 2 m/s 724 mmHg 88%
22:00 +24°C° 0 mm 2 m/s 724 mmHg 89%
23:00 +24°C° 0 mm 1 m/s 724 mmHg 90%

Amanhã, 4 Agosto, Quarta-feira

Tempo Temperatura Precipitação Vento Pressão Humidade
00:00 +23°C° 0 mm 1 m/s 724 mmHg 90%
01:00 +23°C° 0 mm 1 m/s 723 mmHg 91%
02:00 +23°C° 0 mm 1 m/s 723 mmHg 91%
03:00 +23°C° 0 mm 1 m/s 723 mmHg 92%
04:00 +23°C° 0 mm 1 m/s 723 mmHg 92%
05:00 +23°C° 0 mm 1 m/s 723 mmHg 92%
06:00 +24°C° 0 mm 2 m/s 723 mmHg 88%
07:00 +25°C° 0 mm 2 m/s 724 mmHg 83%
08:00 +26°C° 0 mm 2 m/s 724 mmHg 79%
09:00 +27°C° 0.1 mm 3 m/s 724 mmHg 73%
10:00 +28°C° 0.1 mm 3 m/s 724 mmHg 68%
11:00 +29°C° 0.1 mm 4 m/s 724 mmHg 63%
12:00 +30°C° 0.3 mm 4 m/s 724 mmHg 62%
13:00 +30°C° 0.3 mm 4 m/s 724 mmHg 61%
14:00 +30°C° 0.3 mm 4 m/s 724 mmHg 61%
15:00 +29°C° 0.1 mm 4 m/s 724 mmHg 62%
16:00 +29°C° 0.1 mm 4 m/s 723 mmHg 64%
17:00 +29°C° 0.1 mm 4 m/s 723 mmHg 66%
18:00 +27°C° 0 mm 4 m/s 723 mmHg 73%
19:00 +26°C° 0 mm 3 m/s 724 mmHg 80%
20:00 +25°C° 0 mm 2 m/s 724 mmHg 87%
21:00 +24°C° 0 mm 2 m/s 724 mmHg 88%
22:00 +24°C° 0 mm 2 m/s 724 mmHg 89%
23:00 +24°C° 0 mm 1 m/s 725 mmHg 90%

Depois de amanhã, 5 Agosto, Quinta-feira

Tempo Temperatura Precipitação Vento Pressão Humidade
00:00 +24°C° 0.1 mm 1 m/s 724 mmHg 91%
01:00 +24°C° 0.1 mm 1 m/s 724 mmHg 91%
02:00 +24°C° 0.1 mm 1 m/s 724 mmHg 91%
03:00 +24°C° 0.2 mm 1 m/s 724 mmHg 91%
04:00 +24°C° 0.2 mm 1 m/s 724 mmHg 91%
05:00 +24°C° 0.2 mm 2 m/s 724 mmHg 91%
06:00 +24°C° 0.2 mm 2 m/s 724 mmHg 88%
07:00 +25°C° 0.2 mm 2 m/s 725 mmHg 84%
08:00 +26°C° 0.2 mm 3 m/s 725 mmHg 81%
09:00 +27°C° 0 mm 3 m/s 725 mmHg 73%
10:00 +29°C° 0 mm 4 m/s 725 mmHg 66%
11:00 +30°C° 0 mm 4 m/s 725 mmHg 58%
12:00 +30°C° 0 mm 5 m/s 725 mmHg 56%
13:00 +32°C° 0 mm 5 m/s 725 mmHg 54%
14:00 +32°C° 0 mm 5 m/s 724 mmHg 52%
15:00 +30°C° 0 mm 5 m/s 724 mmHg 53%
16:00 +30°C° 0 mm 5 m/s 724 mmHg 54%
17:00 +29°C° 0 mm 4 m/s 724 mmHg 55%
18:00 +27°C° 0 mm 3 m/s 724 mmHg 64%
19:00 +26°C° 0 mm 3 m/s 724 mmHg 73%
20:00 +24°C° 0 mm 2 m/s 724 mmHg 82%
21:00 +24°C° 0.1 mm 2 m/s 724 mmHg 83%
22:00 +25°C° 0.1 mm 2 m/s 724 mmHg 84%
23:00 +25°C° 0.1 mm 2 m/s 725 mmHg 85%

6 Agosto, Sexta-feira

Tempo Temperatura Precipitação Vento Pressão Humidade
00:00 +25°C° 0.1 mm 2 m/s 724 mmHg 86%
01:00 +25°C° 0.1 mm 2 m/s 724 mmHg 87%
02:00 +25°C° 0.1 mm 2 m/s 724 mmHg 87%
03:00 +24°C° 0 mm 2 m/s 724 mmHg 88%
04:00 +24°C° 0 mm 2 m/s 723 mmHg 89%
05:00 +24°C° 0 mm 2 m/s 723 mmHg 89%
06:00 +25°C° 0.1 mm 2 m/s 724 mmHg 87%
07:00 +25°C° 0.1 mm 2 m/s 724 mmHg 84%
08:00 +26°C° 0.1 mm 2 m/s 725 mmHg 81%
09:00 +28°C° 0 mm 3 m/s 725 mmHg 73%
10:00 +29°C° 0 mm 3 m/s 725 mmHg 64%
11:00 +30°C° 0 mm 4 m/s 725 mmHg 56%
12:00 +32°C° 0 mm 4 m/s 725 mmHg 54%
13:00 +32°C° 0 mm 5 m/s 724 mmHg 52%
14:00 +32°C° 0 mm 5 m/s 724 mmHg 50%
15:00 +32°C° 0 mm 5 m/s 724 mmHg 54%
16:00 +30°C° 0 mm 4 m/s 723 mmHg 59%
17:00 +29°C° 0 mm 4 m/s 723 mmHg 64%
18:00 +28°C° 0.1 mm 3 m/s 723 mmHg 72%
19:00 +26°C° 0.1 mm 3 m/s 724 mmHg 81%
20:00 +25°C° 0.1 mm 2 m/s 724 mmHg 89%
21:00 +25°C° 0 mm 2 m/s 724 mmHg 90%
22:00 +24°C° 0 mm 2 m/s 724 mmHg 91%
23:00 +24°C° 0 mm 1 m/s 724 mmHg 92%

7 Agosto, Sábado

Tempo Temperatura Precipitação Vento Pressão Humidade
00:00 +24°C° 0 mm 1 m/s 724 mmHg 92%
01:00 +24°C° 0 mm 1 m/s 723 mmHg 92%
02:00 +24°C° 0 mm 1 m/s 723 mmHg 93%
03:00 +24°C° 0 mm 1 m/s 723 mmHg 93%
04:00 +24°C° 0 mm 1 m/s 723 mmHg 93%
05:00 +24°C° 0 mm 1 m/s 723 mmHg 92%
06:00 +25°C° 0.1 mm 1 m/s 723 mmHg 88%
07:00 +25°C° 0.1 mm 2 m/s 723 mmHg 84%
08:00 +26°C° 0.1 mm 2 m/s 724 mmHg 79%
09:00 +27°C° 0.1 mm 2 m/s 724 mmHg 73%
10:00 +29°C° 0.1 mm 3 m/s 724 mmHg 66%
11:00 +30°C° 0.1 mm 4 m/s 724 mmHg 60%
12:00 +30°C° 0 mm 4 m/s 724 mmHg 59%
13:00 +30°C° 0 mm 4 m/s 723 mmHg 59%
14:00 +30°C° 0 mm 4 m/s 723 mmHg 58%
15:00 +30°C° 0.1 mm 4 m/s 723 mmHg 60%
16:00 +29°C° 0.1 mm 4 m/s 723 mmHg 62%
17:00 +28°C° 0.1 mm 4 m/s 722 mmHg 64%
18:00 +27°C° 0 mm 3 m/s 723 mmHg 72%
19:00 +26°C° 0 mm 3 m/s 723 mmHg 80%
20:00 +25°C° 0 mm 2 m/s 723 mmHg 88%
21:00 +24°C° 0.1 mm 2 m/s 723 mmHg 89%
22:00 +24°C° 0.1 mm 1 m/s 723 mmHg 90%
23:00 +24°C° 0.1 mm 1 m/s 723 mmHg 91%

8 Agosto, Domingo

Tempo Temperatura Precipitação Vento Pressão Humidade
00:00 +24°C° 0.1 mm 1 m/s 723 mmHg 91%
01:00 +24°C° 0.1 mm 1 m/s 722 mmHg 92%
02:00 +24°C° 0.1 mm 1 m/s 722 mmHg 92%
03:00 +24°C° 0.1 mm 1 m/s 722 mmHg 91%
04:00 +24°C° 0.1 mm 1 m/s 722 mmHg 91%
05:00 +24°C° 0.1 mm 1 m/s 722 mmHg 90%
06:00 +25°C° 0.1 mm 1 m/s 722 mmHg 86%
07:00 +25°C° 0.1 mm 2 m/s 722 mmHg 82%
08:00 +26°C° 0.1 mm 2 m/s 723 mmHg 78%
09:00 +28°C° 0.1 mm 3 m/s 723 mmHg 71%
10:00 +29°C° 0.1 mm 3 m/s 723 mmHg 65%
11:00 +30°C° 0.1 mm 4 m/s 723 mmHg 59%
12:00 +30°C° 0.3 mm 4 m/s 723 mmHg 60%
13:00 +30°C° 0.3 mm 5 m/s 723 mmHg 62%
14:00 +30°C° 0.3 mm 5 m/s 723 mmHg 64%
15:00 +29°C° 0.2 mm 5 m/s 723 mmHg 64%
16:00 +29°C° 0.2 mm 4 m/s 722 mmHg 64%
17:00 +28°C° 0.2 mm 4 m/s 722 mmHg 65%
18:00 +27°C° 0 mm 3 m/s 722 mmHg 71%
19:00 +26°C° 0 mm 3 m/s 723 mmHg 78%
20:00 +24°C° 0 mm 2 m/s 723 mmHg 85%
21:00 +24°C° 0 mm 2 m/s 723 mmHg 86%
22:00 +24°C° 0 mm 2 m/s 723 mmHg 87%
23:00 +24°C° 0 mm 2 m/s 724 mmHg 88%
Mostrar mais

Necessitamos do seu Consentimento

A Meteoprog e os seus Fornecedores de Serviços podem armazenar e aceder a dados pessoais como cookies, identificadores do dispositivo ou outras tecnologias semelhantes existentes no seu dispositivo e processar estes dados para personalizar conteúdos e anúncios, assim como funcionalidades nas redes sociais e análise de tráfego.

  • Armazenar e/ou aceder a informações no seu dispositivo

    Os cookies, identificadores do dispositivo ou outras informações podem ser armazenados ou acedidos no seu dispositivo, para os fins acima indicados.

  • Anúncios e conteúdos personalizados, medição de anúncios e conteúdos, dados sobre o público-alvo e desenvolvimento de produtos

    Os anúncios e os conteúdos podem ser personalizados com base num perfil. Podem ser adicionados dados adicionais para uma maior personalização dos anúncios e dos conteúdos. A eficácia dos anúncios e dos conteúdos pode ser medida. Podem ser obtidas informações sobre o público que visualizou os anúncios e os conteúdos. Estes dados podem ser usados para desenvolver ou melhorar sistemas, softwares ou a experiência do utilizador.

Ao clicar em "Eu concordo”, permitirá o uso de cookies, identificadores do dispositivo e web beacons mencionados ou outras tecnologias semelhantes. As configurações do navegador do seu dispositivo podem ser alteradas.

Para certos fins, podem ser invocados interesses legítimos ao invés de consentimento. Pode ler mais informação sobre este assunto na nossa Política de Privacidade e Cookies.